Buffalo, NY

8:28 AM EST on November 23, 2017 (GMT -0500)
Buffalo Niagara International

Weather History for KBUF - June, 2013

Change the Weather History Date:

Thursday, June 6, 2013

  Actual Average Record
Temperature  
Mean Temperature 57 °F 64 °F  
Max Temperature 60 °F 73 °F 90 °F (1955)
Min Temperature 53 °F 55 °F 41 °F (1945)
Degree Days  
Heating Degree Days 8 3  
Month to date heating degree days 34 24  
Since 1 June heating degree days 34 24  
Since 1 July heating degree days 6066 6577  
Cooling Degree Days 0 2  
Month to date cooling degree days 11 12  
Year to date cooling degree days 82 38  
Since 1 June cooling degree days 11 12  
Growing Degree Days 6 (Base 50)    
Moisture  
Dew Point 53 °F    
Average Humidity 76    
Maximum Humidity 100    
Minimum Humidity 51    
Precipitation  
Precipitation 1.40 in 0.12 in 2.16 in (2010)
Month to date precipitation 3.61 0.73  
Year to date precipitation 17.71 15.74  
Snow  
Snow 0.00 in 0.00 in 0.00 in ()
Month to date snowfall 0.0 0.0  
Since 1 June snowfall 0.0 0.0  
Since 1 July snowfall 58.8 94.7  
Snow Depth 0.00 in    
Sea Level Pressure  
Sea Level Pressure 29.91 in    
Wind  
Wind Speed 9 mph (ENE)    
Max Wind Speed 18 mph    
Max Gust Speed 24 mph    
Visibility 6 miles    
Events Rain    
T = Trace of Precipitation, MM = Missing Value Source: NWS Daily Summary

Daily Weather History Graph

Daily Weather History Graph

Search for Another Location

Airport or City:

Trip Planner

Search our weather history database for the weather conditions in past years. The results will help you decide how hot, cold, wet, or windy it might be!

Date:

Astronomy

Jun. 06, 2013 Rise Set
Actual Time 5:36 AM EDT 8:50 PM EDT
Civil Twilight 5:01 AM EDT 9:25 PM EDT
Nautical Twilight 4:16 AM EDT 10:10 PM EDT
Astronomical Twilight 3:22 AM EDT 11:05 PM EDT
Moon 4:19 AM EDT (6/6) 7:08 PM EDT (6/6)
Length of Visible Light 16h 23m
Length of Day
15h 14m
Waning Crescent, 4% of the Moon is Illuminated
Jun 6
Waning Crescent
Jun 8
New
Jun 16
First Quarter
Jun 23
Full
Jun 30
Last Quarter

Hourly Weather History & Observations

Time (EDT) Temp. Dew Point Humidity Pressure Visibility Wind Dir Wind Speed Gust Speed Precip Events Conditions
12:54 AM 57.0 °F 39.9 °F 53% 30.05 in 10.0 mi ENE 12.7 mph - N/A   Mostly Cloudy
1:54 AM 57.0 °F 42.1 °F 57% 30.03 in 10.0 mi ENE 16.1 mph - N/A   Mostly Cloudy
2:54 AM 57.0 °F 43.0 °F 59% 30.00 in 10.0 mi ENE 13.8 mph - N/A   Overcast
3:54 AM 57.0 °F 44.1 °F 62% 29.97 in 10.0 mi ENE 12.7 mph - N/A   Overcast
4:54 AM 57.0 °F 45.0 °F 64% 29.97 in 10.0 mi NNW 10.4 mph - N/A   Overcast
5:54 AM 55.9 °F 46.9 °F 72% 29.97 in 10.0 mi NE 11.5 mph - N/A   Overcast
6:54 AM 55.0 °F 46.9 °F 74% 29.98 in 10.0 mi NE 11.5 mph - N/A   Overcast
7:54 AM 53.1 °F 48.9 °F 86% 29.97 in 10.0 mi ENE 12.7 mph - 0.00 in   Overcast
8:54 AM 53.1 °F 51.1 °F 93% 29.96 in 9.0 mi ENE 11.5 mph - 0.01 in Rain Light Rain
8:59 AM 53.6 °F 51.8 °F 94% 29.96 in 8.0 mi ENE 11.5 mph - 0.00 in Rain Light Rain
9:15 AM 53.6 °F 51.8 °F 94% 29.95 in 8.0 mi ENE 11.5 mph - 0.01 in Rain Light Rain
9:54 AM 54.0 °F 52.0 °F 93% 29.96 in 4.0 mi NE 8.1 mph - 0.03 in Rain Rain
10:35 AM 53.6 °F 53.6 °F 100% 29.93 in 5.0 mi NE 11.5 mph - 0.05 in Rain Light Rain
10:54 AM 55.0 °F 53.1 °F 93% 29.94 in 6.0 mi ENE 12.7 mph - 0.06 in Rain Light Rain
11:26 AM 55.4 °F 53.6 °F 94% 29.92 in 7.0 mi NE 8.1 mph - 0.01 in Rain Light Rain
11:51 AM 55.4 °F 53.6 °F 94% 29.92 in 2.5 mi NE 9.2 mph - 0.04 in Rain Rain
11:54 AM 55.9 °F 54.0 °F 93% 29.93 in 1.5 mi ENE 8.1 mph - 0.09 in Rain Heavy Rain
12:25 PM 55.4 °F 53.6 °F 94% 29.92 in 2.0 mi NE 5.8 mph - 0.19 in Rain Heavy Rain
12:51 PM 55.4 °F 55.4 °F 100% 29.92 in 2.0 mi NE 6.9 mph - 0.34 in Rain Heavy Rain
12:54 PM 55.9 °F 55.0 °F 97% 29.92 in 2.0 mi NE 6.9 mph - 0.36 in Rain Heavy Rain
1:15 PM 55.4 °F 55.4 °F 100% 29.91 in 2.5 mi NE 8.1 mph - 0.07 in Rain Heavy Rain
1:37 PM 57.2 °F 55.4 °F 94% 29.90 in 1.5 mi NE 12.7 mph - 0.17 in Rain Heavy Rain
1:54 PM 57.0 °F 55.9 °F 96% 29.90 in 2.5 mi NE 8.1 mph - 0.29 in Rain Rain
2:23 PM 57.2 °F 57.2 °F 100% 29.90 in 1.5 mi NE 4.6 mph - 0.14 in Rain Heavy Rain
2:50 PM 57.2 °F 57.2 °F 100% 29.89 in 2.0 mi East 8.1 mph - 0.33 in Rain Rain
2:54 PM 57.9 °F 57.0 °F 97% 29.89 in 3.0 mi East 8.1 mph - 0.34 in Rain Rain
3:13 PM 59.0 °F 57.2 °F 94% 29.89 in 2.5 mi East 8.1 mph - 0.06 in Rain Heavy Rain
3:34 PM 59.0 °F 57.2 °F 94% 29.87 in 4.0 mi ESE 9.2 mph - 0.12 in Rain Light Rain
3:54 PM 59.0 °F 57.9 °F 96% 29.87 in 3.0 mi SE 6.9 mph - 0.13 in Rain Rain
4:54 PM 59.0 °F 57.0 °F 93% 29.86 in 10.0 mi ESE 11.5 mph - 0.03 in Rain Light Rain
5:37 PM 59.0 °F 57.2 °F 94% 29.85 in 8.0 mi East 10.4 mph - 0.02 in Rain Light Rain
5:54 PM 59.0 °F 57.0 °F 93% 29.85 in 6.0 mi East 10.4 mph - 0.03 in Rain Light Rain
6:54 PM 59.0 °F 57.0 °F 93% 29.83 in 10.0 mi ESE 10.4 mph - 0.01 in Rain Light Rain
7:54 PM 59.0 °F 57.0 °F 93% 29.83 in 10.0 mi ESE 8.1 mph - 0.00 in   Overcast
8:54 PM 57.9 °F 57.0 °F 97% 29.83 in 10.0 mi ENE 4.6 mph - 0.00 in   Overcast
9:54 PM 57.9 °F 57.0 °F 97% 29.83 in 10.0 mi ENE 4.6 mph - N/A   Overcast
10:54 PM 57.9 °F 57.0 °F 97% 29.84 in 3.0 mi East 6.9 mph - 0.00 in Rain Light Rain
10:57 PM 57.2 °F 57.2 °F 100% 29.84 in 2.5 mi East 6.9 mph - 0.00 in Rain Light Rain
11:35 PM 57.2 °F 57.2 °F 100% 29.84 in 2.5 mi East 4.6 mph - 0.02 in Rain Light Rain
11:40 PM 57.2 °F 57.2 °F 100% 29.83 in 4.0 mi East 3.5 mph - 0.02 in Rain Light Rain
11:54 PM 57.9 °F 57.0 °F 97% 29.84 in 6.0 mi Calm Calm - 0.02 in   Light Drizzle